Simultaneous Nadir Overpasses (SNOs) Predictions

Prediction of SNOs over PacNW region [( 10.00, 139.50) to ( 22.70, 165.60)] between AQUA and NPP Satellites:

Table of predicted SNOs over PacNW region for the next 30.0 days since TLE Epoch: 9/1/2017
Index Date (AQUA) Time (AQUA) AQUA Lat,Lon Date (NPP) Time (NPP) NPP Lat,Lon Distance(km) Time Diff (sec)
1 09/05/2017 15:59:02 22.60, 147.49 09/05/2017 16:02:07 23.24, 144.59 305.20 185
2 09/13/2017 15:09:34 22.64, 159.86 09/13/2017 15:11:28 23.20, 157.25 274.12 114
3 09/16/2017 03:31:24 22.65, 147.54 09/16/2017 03:27:55 23.24, 145.62 207.01 209
4 09/21/2017 15:58:59 22.60, 147.49 09/21/2017 16:02:17 23.26, 144.56 308.77 198
5 09/24/2017 02:41:55 22.65, 159.90 09/24/2017 02:38:26 27.41, 157.21 594.14 209




NCC Satellite Simultaneous Nadir Overpasses (SNOs) Prediction Service
